User: anonymous   Login
Location: Unspecified
(0.0000°N, 0.0000°E)
Time: 11:51:52
(UTC+00:00)
Language:

BEEAGLESAT - Orbit

View from above orbital plane
View from above orbital plane
View from above satellite
View from above satellite

Ground track
Ground track

The orbit data is extracted from the following two-line orbital elements,

1 42736U 98067MR  18168.98252258  .00018004  00000-0  15954-3 0  9997
2 42736  51.6356 354.5379 0005411 224.6915 135.3646 15.68660659 60552
Epoch (UTC): 17 June 2018 23:34:49
Eccentricity: 0.0005411
inclination: 51.6356°
perigee height: 359 km
apogee height: 366 km
right ascension of ascending node: 354.5379°
argument of perigee: 224.6915°
revolutions per day: 15.68660659
mean anomaly at epoch: 135.3646°
orbit number at epoch: 6055

The dashed part of the orbit path shows where the satellite is in the earth's shadow,  

DLR